EW5739 Weather Reports


time (UTC)temp
F
wind
direction
speed
knots
gust
knots
rain 1hr
in
rain 24hr
in
rain mn
in
humidity
%
barometer
mb
20260505011722 47 250 0.0 0.0 0.00 0.00 0.00 87 1006.6
20260505011226 48 250 0.0 0.0 0.00 0.00 0.00 86 1006.5
20260505011222 48 250 0.0 0.0 0.00 0.00 0.00 86 1006.6
20260505010826 48 250 0.0 0.0 0.00 0.00 0.00 85 1006.5
20260505005726 49 250 0.0 0.0 0.00 0.00 0.00 84 1006.4
20260505005722 48 250 0.0 0.0 0.00 0.00 0.00 84 1006.5
20260505004725 49 250 0.0 0.0 0.00 0.00 0.00 83 1006.4
20260505004721 49 250 0.0 0.0 0.00 0.00 0.00 83 1006.4
20260505003719 50 250 0.0 0.0 0.00 0.00 0.00 82 1006.3
20260505003218 50 250 0.0 0.0 0.00 0.00 0.00 81 1006.2
20260505002722 51 250 0.0 0.0 0.00 0.00 0.00 80 1005.9
20260505002717 50 250 0.0 0.0 0.00 0.00 0.00 80 1006.0
20260505001718 51 96 0.0 0.0 0.00 0.00 0.00 79 1005.9
20260505001217 51 96 0.0 0.0 0.00 0.00 0.00 78 1005.8
20260505000718 52 96 0.0 0.0 0.00 0.00 0.00 77 1005.8
20260505000219 52 96 0.0 0.0 0.00 0.00 0.00 76 1005.9
20260504235720 53 94 0.0 0.0 0.00 0.00 0.00 75 1005.8
20260504235716 53 87 0.0 0.0 0.00 0.00 0.00 74 1005.8
20260504235320 54 87 0.0 0.0 0.00 0.00 0.00 72 1005.8
20260504234214 54 87 0.0 0.0 0.00 0.00 0.00 71 1005.7
20260504233713 55 87 0.0 0.0 0.00 0.00 0.00 70 1005.6
20260504233214 55 87 0.0 0.0 0.00 0.00 0.00 69 1005.5
20260504232714 56 87 0.0 0.0 0.00 0.00 0.00 69 1005.4
20260504232217 56 86 0.0 0.0 0.00 0.00 0.00 69 1005.3
20260504232213 56 86 0.0 0.0 0.00 0.00 0.00 69 1005.4
20260504231220 57 86 0.0 1.7 0.00 0.00 0.00 68 1005.2
20260504231213 56 86 0.0 0.0 0.00 0.00 0.00 68 1005.4
20260504230714 57 86 0.0 1.7 0.00 0.00 0.00 68 1005.2
20260504225714 58 145 0.0 0.9 0.00 0.00 0.00 67 1005.2
20260504225218 59 221 0.0 0.0 0.00 0.00 0.00 66 1005.1
20260504225214 59 53 0.0 0.0 0.00 0.00 0.00 68 1005.1
20260504224818 60 220 0.0 0.0 0.00 0.00 0.00 66 1004.9
20260504223718 61 220 0.0 0.9 0.00 0.00 0.00 65 1005.0
20260504223714 60 220 0.0 0.0 0.00 0.00 0.00 66 1004.9
20260504222713 61 153 0.0 0.9 0.00 0.00 0.00 64 1004.8
20260504222214 62 153 0.0 0.0 0.00 0.00 0.00 64 1004.9
20260504221817 64 151 0.0 0.0 0.00 0.00 0.00 58 1004.7
20260504221717 63 242 0.0 0.9 0.00 0.00 0.00 61 1004.8
20260504221713 63 153 0.0 0.9 0.00 0.00 0.00 62 1004.8
20260504220214 64 123 0.0 0.0 0.00 0.00 0.00 58 1004.7
20260504220210 64 122 0.0 0.0 0.00 0.00 0.00 58 1004.8
20260504215209 64 122 0.0 0.0 0.00 0.00 0.00 57 1004.7
20260504214709 64 123 0.0 0.0 0.00 0.00 0.00 57 1004.7
20260504214209 65 120 0.0 0.0 0.00 0.00 0.00 55 1004.7
20260504213710 65 63 0.0 0.0 0.00 0.00 0.00 56 1004.7
20260504213210 66 51 0.0 0.0 0.00 0.00 0.00 54 1004.7
20260504212709 66 98 0.0 0.0 0.00 0.00 0.00 55 1004.7
20260504212210 66 98 0.0 0.0 0.00 0.00 0.00 54 1004.6
20260504211709 66 221 0.0 0.0 0.00 0.00 0.00 54 1004.7
20260504211207 65 222 0.0 0.0 0.00 0.00 0.00 55 1004.7
20260504210708 65 221 0.0 0.0 0.00 0.00 0.00 56 1004.7
20260504210207 65 221 0.0 0.0 0.00 0.00 0.00 56 1004.8
20260504205708 65 221 0.0 0.0 0.00 0.00 0.00 56 1004.7
20260504205207 65 232 0.0 0.0 0.00 0.00 0.00 56 1004.7
20260504204708 65 232 0.0 0.0 0.00 0.00 0.00 56 1004.7
20260504204208 65 232 0.0 0.9 0.00 0.00 0.00 55 1004.6
20260504203707 65 232 0.9 1.7 0.00 0.00 0.00 56 1004.6
20260504203208 65 301 0.9 3.5 0.00 0.00 0.00 56 1004.6
20260504202707 65 278 0.9 4.3 0.00 0.00 0.00 56 1004.6
20260504202201 64 296 0.9 4.3 0.00 0.00 0.00 56 1004.7
20260504201702 64 255 0.9 3.5 0.00 0.00 0.00 57 1004.7
20260504201656 64 282 0.9 2.6 0.00 0.00 0.00 57 1004.7
20260504200648 64 334 0.9 3.5 0.00 0.00 0.00 59 1004.8
20260504200144 63 306 0.9 3.5 0.00 0.00 0.00 60 1004.8
20260504200140 63 253 0.9 3.5 0.00 0.00 0.00 59 1004.8
20260504195125 63 268 0.9 2.6 0.00 0.00 0.00 61 1004.8
20260504194626 62 281 0.9 5.2 0.00 0.00 0.00 61 1004.9
20260504194123 62 314 0.9 5.2 0.00 0.00 0.00 62 1004.9
20260504193620 62 285 0.9 4.3 0.00 0.00 0.00 64 1004.9
20260504193115 61 325 0.0 4.3 0.00 0.00 0.00 64 1004.9
20260504192611 60 262 0.0 1.7 0.00 0.00 0.00 64 1005.0
20260504192104 60 1 0.0 1.7 0.00 0.00 0.00 65 1005.1
20260504191603 60 11 0.0 0.0 0.00 0.00 0.00 66 1004.9
20260504191101 60 23 0.0 0.0 0.00 0.00 0.00 65 1005.1
20260504190602 59 311 0.0 0.0 0.00 0.00 0.00 68 1005.1
20260504190051 58 309 0.0 0.0 0.00 0.00 0.00 68 1005.2
20260504185551 58 41 0.0 0.0 0.00 0.00 0.00 68 1005.3
20260504185051 58 326 0.0 0.0 0.00 0.00 0.00 67 1005.4
20260504184551 58 305 0.0 0.0 0.00 0.00 0.00 67 1005.4
20260504184034 59 11 0.0 0.0 0.00 0.00 0.00 65 1005.3
20260504183533 59 297 0.0 0.0 0.00 0.00 0.00 65 1005.3
20260504183029 59 23 0.0 0.0 0.00 0.00 0.00 65 1005.2
20260504182511 60 281 0.0 0.9 0.00 0.00 0.00 65 1005.2
20260504182011 60 302 0.0 0.9 0.00 0.00 0.00 62 1005.2
20260504181507 59 272 0.0 0.0 0.00 0.00 0.00 64 1005.3
20260504180953 59 15 0.0 0.0 0.00 0.00 0.00 68 1005.2
20260504180449 60 11 0.0 0.0 0.00 0.00 0.00 65 1005.1
20260504175938 60 318 0.0 0.0 0.00 0.00 0.00 61 1005.3
20260504175426 61 317 0.0 0.0 0.00 0.00 0.00 55 1005.1
20260504175421 60 317 0.0 0.0 0.00 0.00 0.00 60 1005.2
20260504174921 60 317 0.0 0.0 0.00 0.00 0.00 56 1005.2
20260504173912 63 233 0.0 0.0 0.00 0.00 0.00 52 1004.9
20260504173907 62 243 0.0 0.0 0.00 0.00 0.00 53 1005.0
20260504172847 64 269 0.0 0.0 0.00 0.00 0.00 52 1004.8
20260504172842 64 116 0.0 0.0 0.00 0.01 0.00 50 1004.8
20260504171841 64 274 0.0 0.0 0.00 0.01 0.00 53 1004.7
20260504171337 64 208 0.0 0.9 0.00 0.02 0.00 53 1004.7
20260504170833 63 234 0.0 2.6 0.00 0.02 0.00 53 1004.5
20260504170331 64 273 0.9 2.6 0.00 0.02 0.00 53 1004.5
20260504150734 60 278 0.0 2.6 0.00 0.08 0.00 63 1005.8
20260504150227 59 270 0.0 0.0 0.00 0.09 0.00 66 1005.8
20260504141212 56 41 0.0 0.0 0.00 0.14 0.00 67 1006.5
20260504141208 56 321 0.0 0.0 0.00 0.15 0.00 67 1006.6
20260504140658 56 237 0.0 0.0 0.00 0.15 0.00 65 1006.7
20260504130518 53 242 0.0 0.0 0.00 0.17 0.00 67 1007.3
20260504110257 37 260 0.0 0.0 0.00 0.21 0.00 91 1007.6
20260504110234 36 260 0.0 0.0 0.00 0.21 0.00 91 1007.6
20260504100612 33 260 0.0 0.0 0.00 0.22 0.00 94 1007.6
20260504100112 33 260 0.0 0.0 0.00 0.22 0.00 94 1007.6
20260504090107 31 260 0.0 0.0 0.00 0.23 0.00 95 1007.4
20260504081606 32 260 0.0 0.0 0.00 0.25 0.00 94 1007.3
20260504081105 32 260 0.0 0.0 0.00 0.25 0.00 94 1007.3
20260504080604 32 260 0.0 0.0 0.00 0.25 0.00 94 1007.4
20260504080103 32 260 0.0 0.0 0.00 0.25 0.00 94 1007.5
20260504050601 34 250 0.0 0.0 0.00 0.25 0.00 91 1006.9
20260504050556 34 249 0.0 0.0 0.00 0.25 0.00 92 1006.9
20260504045053 34 249 0.0 0.0 0.00 0.25 0.00 90 1006.9
20260504044554 35 249 0.0 0.0 0.00 0.25 0.00 89 1006.9
20260504044053 35 249 0.0 0.0 0.00 0.25 0.00 89 1006.9
20260504043558 35 249 0.0 0.0 0.00 0.25 0.00 88 1007.0
20260504043554 35 249 0.0 0.0 0.00 0.25 0.00 89 1006.9
20260504042554 35 249 0.0 0.0 0.00 0.25 0.00 88 1007.0
20260504042054 35 249 0.0 0.0 0.00 0.25 0.00 87 1007.0
20260504041553 35 249 0.0 0.0 0.00 0.25 0.00 87 1007.0
20260504041054 35 249 0.0 0.0 0.00 0.25 0.00 87 1007.0
20260504040554 36 249 0.0 0.0 0.00 0.25 0.00 84 1006.9
20260504040051 36 249 0.0 0.0 0.00 0.25 0.00 83 1006.8
20260504035552 37 249 0.0 0.0 0.00 0.25 0.25 83 1006.7
20260504035052 38 249 0.0 0.0 0.00 0.25 0.25 83 1006.7
20260504034552 38 249 0.0 0.0 0.00 0.25 0.25 83 1006.7
20260504034052 38 249 0.0 0.0 0.00 0.25 0.25 82 1006.6
20260504033552 38 249 0.0 0.0 0.00 0.25 0.25 81 1006.6
20260504033051 38 249 0.0 0.0 0.00 0.25 0.25 80 1006.6
20260504032552 38 249 0.0 0.0 0.00 0.25 0.25 81 1006.5
20260504032052 38 249 0.0 0.0 0.00 0.25 0.25 81 1006.5
20260504031556 39 249 0.0 0.0 0.00 0.25 0.25 79 1006.5
20260504031552 39 249 0.0 0.0 0.00 0.25 0.25 81 1006.5
20260504030550 39 249 0.0 0.0 0.00 0.25 0.25 78 1006.5
20260504030050 39 249 0.0 0.0 0.00 0.25 0.25 78 1006.5
20260504025550 40 249 0.0 0.0 0.00 0.25 0.25 77 1006.5
20260504025050 40 249 0.0 0.0 0.00 0.25 0.25 77 1006.4
20260504024550 40 249 0.0 0.0 0.00 0.25 0.25 75 1006.4
20260504024050 40 249 0.0 0.0 0.00 0.25 0.25 75 1006.3
20260504023550 40 249 0.0 0.0 0.00 0.25 0.25 74 1006.3
20260504023050 40 249 0.0 0.0 0.00 0.25 0.25 74 1006.2
20260504022549 41 249 0.0 0.0 0.00 0.25 0.25 74 1006.2
20260504022048 41 249 0.0 0.0 0.00 0.25 0.25 70 1006.2
20260504021548 42 249 0.0 0.0 0.00 0.25 0.25 70 1006.1
20260504021048 42 249 0.0 0.0 0.00 0.25 0.25 69 1006.1
20260504020548 42 249 0.0 0.0 0.00 0.25 0.25 68 1006.1
20260504020047 43 249 0.0 0.0 0.00 0.25 0.25 68 1006.1
20260504015548 43 264 0.0 0.0 0.00 0.25 0.25 68 1006.1
20260504015052 43 266 0.0 0.0 0.00 0.25 0.25 68 1006.0
20260504015047 43 279 0.0 0.0 0.00 0.25 0.25 68 1006.1
20260504014047 43 264 0.0 0.0 0.00 0.25 0.25 68 1006.0
20260504013547 43 275 0.0 0.0 0.00 0.25 0.25 66 1006.0
20260504013046 44 275 0.0 0.0 0.00 0.25 0.25 65 1005.9
20260504012546 44 265 0.0 0.0 0.00 0.25 0.25 66 1005.9